When you browse on this site, cookies collect data to enhance your experience and personalize the content and advertising you see.
Visit our Privacy Policy to learn more. By continuing to use the site, you agree to this use of cookies and data.
  • In United Kingdom
  • List of Countries
  • For 7 days
  • Water Temperature
  • Weather Map
  • Weather Widgets
  • user-avatar
    Login

    Hourly Weather Mons

    Today, 23 August, Friday

    Time Temperature Precipitation Wind Pressure Humidity
    00:00 +13°C° 0 mm 0 mps 766 mmHg 76%
    01:00 +13°C° 0 mm 0 mps 766 mmHg 76%
    02:00 +13°C° 0 mm 0 mps 766 mmHg 76%
    03:00 +13°C° 0 mm 1 mps 766 mmHg 77%
    04:00 +14°C° 0 mm 1 mps 766 mmHg 76%
    05:00 +15°C° 0 mm 1 mps 766 mmHg 75%
    06:00 +15°C° 0 mm 1 mps 766 mmHg 73%
    07:00 +19°C° 0 mm 1 mps 766 mmHg 66%
    08:00 +20°C° 0 mm 2 mps 766 mmHg 60%
    09:00 +23°C° 0 mm 2 mps 766 mmHg 53%
    10:00 +24°C° 0 mm 2 mps 766 mmHg 50%
    11:00 +26°C° 0 mm 2 mps 765 mmHg 47%
    12:00 +27°C° 0 mm 2 mps 765 mmHg 43%
    13:00 +28°C° 0 mm 2 mps 765 mmHg 42%
    14:00 +28°C° 0 mm 2 mps 765 mmHg 41%
    15:00 +29°C° 0 mm 1 mps 764 mmHg 40%
    16:00 +27°C° 0 mm 2 mps 764 mmHg 46%
    17:00 +26°C° 0 mm 2 mps 764 mmHg 52%
    18:00 +24°C° 0 mm 2 mps 763 mmHg 58%
    19:00 +23°C° 0 mm 2 mps 764 mmHg 61%
    20:00 +20°C° 0 mm 2 mps 764 mmHg 65%
    21:00 +19°C° 0 mm 2 mps 764 mmHg 68%
    22:00 +19°C° 0 mm 2 mps 764 mmHg 69%
    23:00 +18°C° 0 mm 2 mps 763 mmHg 71%

    Tomorrow, 24 August, Saturday

    Time Temperature Precipitation Wind Pressure Humidity
    00:00 +18°C° 0 mm 2 mps 763 mmHg 72%
    01:00 +17°C° 0 mm 2 mps 763 mmHg 71%
    02:00 +17°C° 0 mm 2 mps 763 mmHg 71%
    03:00 +17°C° 0 mm 2 mps 763 mmHg 71%
    04:00 +17°C° 0 mm 2 mps 762 mmHg 71%
    05:00 +17°C° 0 mm 2 mps 762 mmHg 71%
    06:00 +18°C° 0 mm 2 mps 762 mmHg 71%
    07:00 +20°C° 0 mm 2 mps 762 mmHg 65%
    08:00 +24°C° 0 mm 2 mps 762 mmHg 60%
    09:00 +26°C° 0 mm 2 mps 762 mmHg 54%
    10:00 +28°C° 0 mm 2 mps 762 mmHg 50%
    11:00 +29°C° 0 mm 3 mps 761 mmHg 46%
    12:00 +30°C° 0 mm 3 mps 761 mmHg 42%
    13:00 +30°C° 0 mm 3 mps 761 mmHg 41%
    14:00 +31°C° 0 mm 2 mps 761 mmHg 40%
    15:00 +31°C° 0 mm 2 mps 760 mmHg 39%
    16:00 +29°C° 0 mm 2 mps 760 mmHg 45%
    17:00 +28°C° 0 mm 1 mps 760 mmHg 52%
    18:00 +26°C° 0 mm 1 mps 760 mmHg 58%
    19:00 +25°C° 0 mm 1 mps 760 mmHg 60%
    20:00 +24°C° 0 mm 1 mps 760 mmHg 63%
    21:00 +23°C° 0 mm 2 mps 760 mmHg 65%
    22:00 +21°C° 0 mm 2 mps 760 mmHg 66%
    23:00 +21°C° 0 mm 2 mps 760 mmHg 66%

    Day after tomorrow, 25 August, Sunday

    Time Temperature Precipitation Wind Pressure Humidity
    00:00 +20°C° 0 mm 2 mps 760 mmHg 66%
    01:00 +20°C° 0 mm 2 mps 760 mmHg 69%
    02:00 +21°C° 0 mm 1 mps 760 mmHg 72%
    03:00 +20°C° 0 mm 1 mps 760 mmHg 75%
    04:00 +21°C° 0 mm 1 mps 760 mmHg 77%
    05:00 +21°C° 0 mm 1 mps 760 mmHg 78%
    06:00 +21°C° 0 mm 1 mps 760 mmHg 80%
    07:00 +23°C° 0 mm 1 mps 760 mmHg 74%
    08:00 +25°C° 0 mm 1 mps 760 mmHg 67%
    09:00 +27°C° 0 mm 1 mps 760 mmHg 61%
    10:00 +29°C° 0 mm 1 mps 760 mmHg 56%
    11:00 +30°C° 0 mm 1 mps 760 mmHg 51%
    12:00 +29°C° 0 mm 0 mps 760 mmHg 46%
    13:00 +30°C° 0 mm 0 mps 760 mmHg 44%
    14:00 +30°C° 0 mm 0 mps 760 mmHg 41%
    15:00 +30°C° 0 mm 0 mps 760 mmHg 39%
    16:00 +30°C° 0 mm 1 mps 760 mmHg 44%
    17:00 +29°C° 0 mm 1 mps 760 mmHg 49%
    18:00 +28°C° 0 mm 1 mps 759 mmHg 55%
    19:00 +26°C° 0 mm 1 mps 760 mmHg 57%
    20:00 +25°C° 0 mm 1 mps 760 mmHg 59%
    21:00 +23°C° 0 mm 1 mps 761 mmHg 61%
    22:00 +23°C° 0 mm 1 mps 761 mmHg 63%
    23:00 +22°C° 0 mm 1 mps 760 mmHg 65%

    26 August, Monday

    Time Temperature Precipitation Wind Pressure Humidity
    00:00 +22°C° 0 mm 1 mps 760 mmHg 67%
    01:00 +21°C° 0 mm 1 mps 760 mmHg 69%
    02:00 +21°C° 0 mm 1 mps 760 mmHg 71%
    03:00 +21°C° 0 mm 1 mps 760 mmHg 73%
    04:00 +21°C° 0 mm 1 mps 760 mmHg 73%
    05:00 +21°C° 0 mm 1 mps 760 mmHg 74%
    06:00 +21°C° 0 mm 1 mps 760 mmHg 74%
    07:00 +24°C° 0 mm 1 mps 760 mmHg 67%
    08:00 +26°C° 0 mm 1 mps 760 mmHg 59%
    09:00 +28°C° 0 mm 2 mps 760 mmHg 52%
    10:00 +30°C° 0 mm 2 mps 760 mmHg 46%
    11:00 +31°C° 0 mm 2 mps 760 mmHg 41%
    12:00 +32°C° 0 mm 2 mps 760 mmHg 36%
    13:00 +32°C° 0 mm 2 mps 760 mmHg 35%
    14:00 +32°C° 0 mm 2 mps 759 mmHg 34%
    15:00 +32°C° 0 mm 2 mps 759 mmHg 32%
    16:00 +31°C° 0 mm 2 mps 759 mmHg 38%
    17:00 +29°C° 0 mm 2 mps 758 mmHg 43%
    18:00 +27°C° 0 mm 2 mps 758 mmHg 49%
    19:00 +26°C° 0 mm 2 mps 758 mmHg 53%
    20:00 +25°C° 0 mm 2 mps 758 mmHg 57%
    21:00 +23°C° 0 mm 2 mps 759 mmHg 61%
    22:00 +23°C° 0 mm 2 mps 758 mmHg 62%
    23:00 +21°C° 0 mm 2 mps 758 mmHg 64%

    27 August, Tuesday

    Time Temperature Precipitation Wind Pressure Humidity
    00:00 +21°C° 0 mm 3 mps 758 mmHg 66%
    01:00 +21°C° 0 mm 3 mps 758 mmHg 67%
    02:00 +21°C° 0 mm 3 mps 758 mmHg 69%
    03:00 +20°C° 0 mm 3 mps 757 mmHg 70%
    04:00 +20°C° 0 mm 2 mps 757 mmHg 70%
    05:00 +21°C° 0 mm 2 mps 757 mmHg 70%
    06:00 +21°C° 0 mm 2 mps 757 mmHg 70%
    07:00 +24°C° 0 mm 2 mps 757 mmHg 64%
    08:00 +26°C° 0 mm 3 mps 757 mmHg 58%
    09:00 +28°C° 0 mm 3 mps 757 mmHg 53%
    10:00 +29°C° 0 mm 3 mps 757 mmHg 49%
    11:00 +30°C° 0 mm 3 mps 757 mmHg 46%
    12:00 +33°C° 0 mm 3 mps 757 mmHg 43%
    13:00 +33°C° 0 mm 3 mps 756 mmHg 43%
    14:00 +33°C° 0 mm 4 mps 756 mmHg 43%
    15:00 +33°C° 0 mm 4 mps 756 mmHg 44%
    16:00 +30°C° 0 mm 4 mps 756 mmHg 50%
    17:00 +28°C° 0 mm 4 mps 756 mmHg 56%
    18:00 +26°C° 0 mm 4 mps 756 mmHg 62%
    19:00 +25°C° 0 mm 3 mps 757 mmHg 66%
    20:00 +22°C° 0 mm 3 mps 757 mmHg 70%
    21:00 +21°C° 0 mm 2 mps 757 mmHg 74%
    22:00 +21°C° 0 mm 3 mps 758 mmHg 76%
    23:00 +21°C° 0 mm 4 mps 758 mmHg 78%

    28 August, Wednesday

    Time Temperature Precipitation Wind Pressure Humidity
    00:00 +20°C° 0 mm 4 mps 758 mmHg 80%
    01:00 +19°C° 0 mm 4 mps 758 mmHg 83%
    02:00 +19°C° 0 mm 4 mps 758 mmHg 87%
    03:00 +18°C° 0 mm 4 mps 758 mmHg 90%
    04:00 +18°C° 0 mm 4 mps 758 mmHg 89%
    05:00 +18°C° 0 mm 4 mps 759 mmHg 88%
    06:00 +18°C° 0 mm 4 mps 759 mmHg 87%
    07:00 +19°C° 0 mm 4 mps 759 mmHg 80%
    08:00 +20°C° 0 mm 5 mps 760 mmHg 73%
    09:00 +21°C° 0 mm 5 mps 760 mmHg 66%
    10:00 +22°C° 0 mm 5 mps 760 mmHg 61%
    11:00 +23°C° 0 mm 5 mps 760 mmHg 56%
    12:00 +25°C° 0 mm 5 mps 760 mmHg 52%
    13:00 +26°C° 0 mm 4 mps 760 mmHg 51%
    14:00 +26°C° 0 mm 4 mps 760 mmHg 50%
    15:00 +27°C° 0 mm 4 mps 760 mmHg 49%
    16:00 +25°C° 0 mm 4 mps 760 mmHg 54%
    17:00 +24°C° 0 mm 3 mps 760 mmHg 58%
    18:00 +22°C° 0 mm 3 mps 761 mmHg 63%
    19:00 +21°C° 0 mm 2 mps 761 mmHg 68%
    20:00 +19°C° 0 mm 2 mps 761 mmHg 73%
    21:00 +17°C° 0 mm 2 mps 762 mmHg 79%
    22:00 +17°C° 0 mm 2 mps 762 mmHg 81%
    23:00 +16°C° 0 mm 2 mps 762 mmHg 84%
    Show more